GW3700 Weather Reports


time (UTC)temp
F
wind
direction
speed
knots
gust
knots
rain 1hr
in
rain 24hr
in
rain mn
in
humidity
%
barometer
mb
20260505163009 51 337 2.6 4.3 0.00 0.00 0.00 86 1021.9
20260505161504 52 340 2.6 4.3 0.00 0.00 0.00 86 1022.1
20260505153057 53 312 1.7 3.5 0.00 0.00 0.00 84 1022.5
20260505151552 54 336 1.7 4.3 0.00 0.00 0.00 81 1022.4
20260505124540 56 272 2.6 7.0 0.00 0.00 0.00 81 1022.9
20260505123040 56 293 3.5 7.0 0.00 0.00 0.00 81 1023.0
20260505121540 57 327 3.5 6.1 0.00 0.00 0.00 80 1023.2
20260505120039 57 296 3.5 7.8 0.00 0.00 0.00 80 1023.3
20260505114540 57 345 4.3 7.0 0.00 0.00 0.00 81 1023.4
20260505113044 57 265 3.5 7.0 0.00 0.00 0.00 80 1023.3
20260505111535 58 281 0.9 7.0 0.00 0.00 0.00 80 1023.1
20260505101549 59 203 3.5 9.6 0.00 0.00 0.00 80 1022.8
20260505100053 60 217 3.5 9.6 0.00 0.00 0.00 80 1022.8
20260505094532 60 213 4.3 13.9 0.00 0.00 0.00 81 1022.8
20260505093028 60 232 7.0 13.0 0.00 0.00 0.00 85 1022.5
20260505091524 60 267 7.0 13.9 0.00 0.00 0.00 82 1022.2
20260505090023 60 227 5.2 13.9 0.00 0.00 0.00 86 1022.0
20260505084522 60 210 5.2 13.0 0.00 0.00 0.00 87 1021.8
20260505083023 60 210 6.1 15.6 0.00 0.00 0.00 82 1021.5
20260505081517 60 250 9.6 15.6 0.00 0.00 0.00 80 1021.2
20260505080014 60 233 10.4 17.4 0.00 0.00 0.00 80 1021.0
20260505074511 60 206 7.8 20.9 0.00 0.00 0.00 82 1020.6
20260505073028 60 191 7.8 13.9 0.00 0.00 0.00 84 1020.4
20260505071508 60 214 6.1 11.3 0.00 0.00 0.00 85 1020.3
20260505070006 60 221 6.1 13.0 0.00 0.00 0.00 84 1020.0
20260505064502 62 183 5.2 16.5 0.00 0.00 0.00 82 1019.8
20260505063001 62 223 9.6 18.2 0.00 0.00 0.00 78 1019.6
20260505061601 62 210 8.7 17.4 0.00 0.00 0.00 79 1019.6
20260505060103 62 212 9.6 15.6 0.00 0.00 0.00 78 1019.5
20260505054557 62 197 9.6 18.2 0.00 0.00 0.00 79 1019.3
20260505053056 62 202 10.4 17.4 0.00 0.00 0.00 78 1019.1
20260505051557 62 203 7.8 15.6 0.00 0.00 0.00 79 1019.1
20260505041548 62 238 7.0 15.6 0.00 0.00 0.00 78 1018.4
20260505040049 62 236 7.8 13.9 0.00 0.00 0.00 77 1018.4
20260505034550 63 243 7.8 19.1 0.00 0.00 0.00 75 1018.3
20260505033047 62 219 9.6 17.4 0.00 0.00 0.00 76 1018.3
20260505031550 62 211 9.6 15.6 0.00 0.00 0.00 77 1018.2
20260505030044 62 213 8.7 16.5 0.00 0.00 0.00 78 1018.2
20260505024543 62 219 7.8 16.5 0.00 0.00 0.00 78 1018.2
20260505023049 62 231 8.7 15.6 0.00 0.00 0.00 77 1018.3
20260505021543 62 205 7.8 15.6 0.00 0.00 0.00 77 1018.3
20260505020041 62 203 7.8 14.8 0.00 0.00 0.00 76 1018.4
20260505014539 62 207 6.1 13.9 0.00 0.00 0.00 74 1018.5
20260505013037 62 206 6.1 12.2 0.00 0.00 0.00 73 1018.6
20260505011538 62 247 4.3 8.7 0.00 0.00 0.00 73 1018.5
20260505010100 62 227 6.1 10.4 0.00 0.00 0.00 74 1018.5
20260505004533 64 212 4.3 11.3 0.00 0.00 0.00 68 1018.2
20260505003032 63 229 5.2 11.3 0.00 0.00 0.00 65 1017.9
20260505001528 64 189 2.6 6.1 0.00 0.00 0.00 67 1017.8
20260505000040 63 253 4.3 10.4 0.00 0.00 0.00 64 1017.6
20260504234524 63 220 1.7 8.7 0.00 0.00 0.00 65 1017.6
20260504233022 62 243 2.6 7.8 0.00 0.00 0.00 66 1017.6
20260504231519 62 304 4.3 8.7 0.00 0.00 0.00 68 1017.4
20260504230020 61 273 3.5 9.6 0.00 0.00 0.00 68 1017.1
20260504224513 61 236 4.3 7.8 0.00 0.00 0.00 68 1017.2
20260504223012 59 288 2.6 7.0 0.00 0.00 0.00 73 1017.1
20260504221517 58 322 3.5 6.1 0.00 0.00 0.00 75 1017.0
20260504220003 57 313 4.3 6.1 0.00 0.00 0.00 75 1016.7
20260504214500 56 297 3.5 6.1 0.00 0.00 0.00 76 1016.5
20260504213112 0 0.0 0.0 0.00 0.00 0.00 1016.3
20260504211553 0 0.0 0.0 0.00 0.00 0.00 1016.0
20260504210049 0 0.0 0.0 0.00 0.00 0.00 1015.7
20260504204547 0 0.0 0.0 0.00 0.00 0.00 1015.4
20260504203048 0 0.0 0.0 0.00 0.00 0.00 1015.1
20260504201538 0 0.0 0.0 0.00 0.00 0.00 1014.9
20260504200032 0 0.0 0.0 0.00 0.00 0.00 1014.5
20260504194537 0 0.0 0.0 0.00 0.00 0.00 1014.3
20260504193024 0 0.0 0.0 0.00 0.00 0.00 1014.2
20260504191530 0 0.0 0.0 0.00 0.00 0.00 1014.0
20260504190015 0 0.0 0.0 0.00 0.00 0.00 1013.7
20260504184514 0 321 4.3 7.8 0.00 0.00 0.00 73 1013.6
20260504183005 56 303 4.3 7.0 0.00 0.00 0.00 72 1013.5
20260504181505 56 308 6.1 9.6 0.00 0.00 0.00 73 1013.2
20260504180002 55 297 4.3 7.0 0.00 0.00 0.00 75 1013.3
20260504174501 54 295 3.5 7.0 0.00 0.00 0.00 77 1013.1
20260504173100 54 307 2.6 5.2 0.00 0.00 0.00 76 1013.1
20260504171600 56 344 2.6 9.6 0.00 0.00 0.00 73 1012.8